[[{"header":{"parameterUnit":"m.s-1","parameterCategory":1,"la1":30.2991,"la2":30.254,"lo1":-89.0895,"lo2":-89.0444,"dy":0.0017,"dx":0.0017,"nx":28,"ny":28,"refTime":"2025-11-22T09:00:00:Z","depth":0,"parameterNumber":2,"parameterNumberName":"U-component_of_WINDS"},"data":[0,0,0,0,0,0,0,0,0,0,0,0,0,0,0,0,0,0,0,0,0,0,0,0,0,0,0,0,0,0,0,0,0,0,0,0,0,0,0,0,0,0,0,0,0,0,0,0,0,0,0,0,0,0,0,0,0,0,0.4811,0.4812,0,0.486,0.4861,0.4861,0.4899,0.49,0.49,0.49,0.4949,0.495,0.4951,0,0,0,0,0,0,0,0,0,0,0,0,0,0.475,0.475,0.4811,0.4812,0.4812,0.486,0.4861,0.4861,0.4899,0.49,0.49,0.4901,0.4949,0.495,0.4951,0,0,0,0,0,0,0,0,0,0,0,0,0,0.4785,0.4751,0.4811,0.4837,0.484,0.486,0.4861,0.4862,0.4899,0.49,0.49,0.4901,0.4948,0.495,0.4951,0.4949,0,0,0.4956,0.4956,0,0,0,0,0,0,0,0,0.4783,0.4787,0.4833,0.4835,0.4839,0.4874,0.4857,0.4891,0.4899,0.4877,0.49,0.4901,0.4924,0.4927,0.4935,0.4951,0.4953,0.4956,0.4957,0.4957,0.4958,0,0,0,0,0,0,0,0.478,0.4785,0.4831,0.4833,0.4837,0.4846,0.4852,0.4864,0.4896,0.4879,0.4882,0.4887,0.4925,0.4934,0.4937,0.4954,0.4956,0.4957,0.4958,0.4958,0.4971,0.497,0,0,0,0,0,0,0.4774,0.4783,0.4829,0.4832,0.4812,0.4847,0.4853,0.4862,0.4896,0.4902,0.4886,0.4888,0.4931,0.4935,0.4938,0.4938,0.4957,0.4959,0.4959,0.4971,0.4971,0.497,0,0,0,0,0,0,0.4773,0.4778,0.4827,0.4808,0.4815,0.4847,0.4857,0.4863,0.4871,0.4902,0.4908,0.4889,0.4932,0.4936,0.4946,0.494,0.4959,0.496,0.4972,0.4971,0.4971,0.4937,0,0,0,0,0,0,0.4771,0.4777,0.4777,0.4808,0.4816,0.4834,0.4857,0.4863,0.4874,0.4877,0.4906,0.4911,0.4932,0.4944,0.4948,0.4943,0.4962,0.4973,0.4972,0.4971,0.4939,0.4935,0.4932,0,0,0,0,0,0.4768,0.4765,0.4777,0.4782,0.4816,0.4834,0.4838,0.4863,0.4873,0.4873,0.4893,0.4911,0.494,0.4945,0.4949,0.4944,0.4973,0.4972,0.4971,0.494,0.4936,0.4932,0,0,0,0,0,0,0.4732,0.477,0.4783,0.4789,0.4808,0.484,0.4841,0.4857,0.4873,0.4875,0.4905,0.4911,0.4918,0.4932,0.4936,0.4944,0.4959,0.4959,0.4934,0.493,0.4927,0.4923,0.4963,0,0,0,0,0,0.4724,0.4735,0.4768,0.4771,0.478,0.4808,0.4817,0.4834,0.4854,0.4862,0.4883,0.4902,0.4916,0.4924,0.4938,0.4941,0.4948,0.494,0.4937,0.4934,0.4933,0.4936,0.4933,0.4966,0.4966,0.4966,0,0,0.4709,0.4731,0.4737,0.4764,0.478,0.4791,0.4815,0.4825,0.4833,0.4864,0.4875,0.489,0.4913,0.492,0.4924,0.4932,0.4926,0.4933,0.493,0.4931,0.4935,0.4931,0.4928,0.4966,0.4966,0.4966,0,0,0.4687,0.4705,0.4709,0.4726,0.4751,0.477,0.4771,0.4801,0.4812,0.4824,0.4847,0.4857,0.488,0.4895,0.4906,0.489,0.4907,0.4894,0.4877,0.4879,0.4876,0.4874,0.4868,0.4866,0.4894,0.4893,0.4893,0,0.4665,0.4682,0.4709,0.4718,0.473,0.4759,0.4763,0.4778,0.4806,0.4813,0.4822,0.4851,0.4869,0.4879,0.4876,0.4883,0.4885,0.4891,0.4875,0.4873,0.4871,0.4866,0.4864,0.4892,0.4892,0.4892,0.4892,0,0.4654,0.4666,0.4666,0.4693,0.4705,0.4711,0.4739,0.4747,0.4764,0.4782,0.4793,0.4815,0.4834,0.4838,0.4854,0.4851,0.4856,0.4869,0.4885,0.4866,0.4861,0.486,0.4889,0.489,0.489,0.4891,0,0,0.461,0.4652,0.4651,0.4664,0.4694,0.4703,0.4711,0.4731,0.4737,0.4756,0.4763,0.4782,0.4795,0.4807,0.4825,0.4827,0.4814,0.4841,0.4842,0.4835,0.4811,0.4801,0.4798,0.4825,0.4825,0.4825,0.4809,0,0.4592,0.4608,0.4633,0.4641,0.4652,0.468,0.4687,0.4706,0.4723,0.4735,0.4754,0.4767,0.4783,0.4791,0.4794,0.4814,0.4809,0.4816,0.4832,0.4832,0.4825,0.4796,0.4784,0.4769,0.4808,0.4808,0.4807,0,0.4574,0.4591,0.46,0.4629,0.4635,0.4641,0.4661,0.4672,0.4694,0.4706,0.472,0.474,0.475,0.4764,0.4778,0.4782,0.479,0.4801,0.4801,0.4803,0.4818,0.4797,0.4764,0.4762,0.4805,0.4805,0.4805,0,0.454,0.4566,0.4575,0.4585,0.4619,0.4622,0.4637,0.466,0.467,0.4687,0.4694,0.4712,0.4722,0.4735,0.4759,0.4768,0.477,0.4787,0.478,0.478,0.4779,0.4779,0.4748,0.4785,0.4785,0.4785,0.4785,0,0.4518,0.4522,0.456,0.4565,0.4571,0.46,0.4604,0.4621,0.4641,0.4651,0.4676,0.4684,0.4715,0.4727,0.4746,0.4754,0.4758,0.4768,0.4773,0.4766,0.4764,0.4771,0.4773,0.4784,0.4785,0.4785,0.4785,0,0.4481,0.4506,0.4518,0.455,0.4558,0.4561,0.4588,0.4594,0.4613,0.4624,0.4629,0.4658,0.4673,0.4699,0.4721,0.4734,0.4738,0.4747,0.4731,0.4734,0.4726,0.4726,0.4698,0.4695,0.4734,0.4734,0.4733,0,0.4465,0.4469,0.4501,0.4509,0.4523,0.4536,0.4546,0.4574,0.4585,0.461,0.4613,0.463,0.4645,0.4668,0.4691,0.4708,0.4717,0.4706,0.472,0.4712,0.4717,0.4716,0.4716,0.4702,0.4702,0.4701,0.4701,0,0.4433,0.4446,0.446,0.4479,0.4492,0.4508,0.4526,0.4531,0.4563,0.4573,0.4589,0.46,0.4623,0.464,0.466,0.4675,0.4693,0.4697,0.4696,0.4688,0.4679,0.4684,0.4722,0.4697,0.4697,0.4698,0.4698,0.4698,0.4406,0.4411,0.4435,0.445,0.4467,0.4483,0.449,0.451,0.4524,0.4545,0.4561,0.4576,0.4598,0.4627,0.4641,0.4653,0.4661,0.466,0.466,0.4659,0.4656,0.4677,0.4657,0.4657,0.4657,0.4657,0.4657,0,0.4376,0.4393,0.4407,0.4431,0.4443,0.446,0.448,0.4489,0.4502,0.4521,0.4536,0.4554,0.457,0.4595,0.4613,0.4618,0.4626,0.4621,0.4621,0.4624,0.4648,0.4647,0.4614,0.4614,0.4614,0.4614,0.4614,0.4614,0.4361,0.4371,0.4386,0.4404,0.4421,0.4436,0.4446,0.4461,0.4476,0.4496,0.4509,0.4526,0.4547,0.4567,0.4583,0.459,0.4595,0.4587,0.4597,0.4618,0.4622,0.4626,0.4625,0.4588,0.4588,0.4572,0.4572,0.4572]},{"header":{"parameterUnit":"m.s-1","parameterCategory":1,"la1":30.2991,"la2":30.254,"lo1":-89.0895,"lo2":-89.0444,"dy":0.0017,"dx":0.0017,"nx":28,"ny":28,"refTime":"2025-11-22T09:00:00:Z","depth":0,"parameterNumber":3,"parameterNumberName":"V-component_of_WINDS"},"data":[0,0,0,0,0,0,0,0,0,0,0,0,0,0,0,0,0,0,0,0,0,0,0,0,0,0,0,0,0,0,0,0,0,0,0,0,0,0,0,0,0,0,0,0,0,0,0,0,0,0,0,0,0,0,0,0,0,0,-2.9574,-2.9574,0,-2.9565,-2.9565,-2.9565,-2.9535,-2.9535,-2.9534,-2.9533,-2.9525,-2.9526,-2.9526,0,0,0,0,0,0,0,0,0,0,0,0,0,-2.9565,-2.9565,-2.9574,-2.9574,-2.9574,-2.9565,-2.9565,-2.9565,-2.9536,-2.9535,-2.9534,-2.9533,-2.9525,-2.9526,-2.9526,0,0,0,0,0,0,0,0,0,0,0,0,0,-2.9564,-2.9565,-2.9574,-2.9558,-2.9557,-2.9565,-2.9565,-2.9565,-2.9536,-2.9535,-2.9534,-2.9533,-2.9525,-2.9526,-2.9526,-2.955,0,0,-2.9528,-2.9528,0,0,0,0,0,0,0,0,-2.9564,-2.9564,-2.9561,-2.9559,-2.9557,-2.955,-2.9559,-2.956,-2.9536,-2.9544,-2.9533,-2.9532,-2.9535,-2.9534,-2.9535,-2.955,-2.9549,-2.9528,-2.9528,-2.9529,-2.9529,0,0,0,0,0,0,0,-2.9564,-2.9564,-2.9571,-2.956,-2.9559,-2.9551,-2.955,-2.9559,-2.9545,-2.9543,-2.9541,-2.954,-2.9534,-2.9534,-2.9535,-2.9549,-2.9528,-2.9529,-2.9529,-2.9529,-2.9583,-2.9584,0,0,0,0,0,0,-2.9566,-2.9565,-2.9571,-2.957,-2.9558,-2.9552,-2.9551,-2.9554,-2.9545,-2.9542,-2.9541,-2.9539,-2.9534,-2.9534,-2.9534,-2.9561,-2.9529,-2.9529,-2.953,-2.9582,-2.9583,-2.9584,0,0,0,0,0,0,-2.9566,-2.9567,-2.9571,-2.9567,-2.9567,-2.9553,-2.9557,-2.9554,-2.9555,-2.9543,-2.9541,-2.9545,-2.9533,-2.9533,-2.9546,-2.9561,-2.953,-2.953,-2.9581,-2.9582,-2.9584,-2.9617,0,0,0,0,0,0,-2.9566,-2.9567,-2.9576,-2.9567,-2.9567,-2.9584,-2.9558,-2.9555,-2.9556,-2.9553,-2.9546,-2.9544,-2.9532,-2.9545,-2.9547,-2.9561,-2.9531,-2.9579,-2.9581,-2.9583,-2.9614,-2.9619,-2.9623,0,0,0,0,0,-2.9566,-2.9586,-2.9577,-2.9578,-2.9578,-2.9585,-2.9585,-2.9571,-2.9557,-2.9566,-2.9559,-2.9544,-2.9559,-2.9547,-2.9548,-2.9563,-2.9578,-2.9581,-2.9583,-2.9612,-2.9618,-2.9623,0,0,0,0,0,0,-2.9598,-2.9585,-2.9574,-2.9592,-2.959,-2.958,-2.9591,-2.9578,-2.9579,-2.9576,-2.9559,-2.9558,-2.9573,-2.9569,-2.9557,-2.9585,-2.9566,-2.9569,-2.9588,-2.9593,-2.9598,-2.9599,-2.9531,0,0,0,0,0,-2.9607,-2.9613,-2.9601,-2.9618,-2.9617,-2.9604,-2.9607,-2.9596,-2.9593,-2.9592,-2.9585,-2.9582,-2.9586,-2.9589,-2.9593,-2.9613,-2.9611,-2.9624,-2.9628,-2.9632,-2.9635,-2.9645,-2.9651,-2.9592,-2.9592,-2.9592,0,0,-2.9626,-2.962,-2.9625,-2.9625,-2.9621,-2.9628,-2.9604,-2.9612,-2.9617,-2.9593,-2.9605,-2.96,-2.9596,-2.9613,-2.962,-2.961,-2.965,-2.9635,-2.9638,-2.9639,-2.9648,-2.9654,-2.9659,-2.9594,-2.9593,-2.9593,0,0,-2.9664,-2.966,-2.9673,-2.967,-2.9666,-2.9656,-2.966,-2.9651,-2.9647,-2.9658,-2.964,-2.9646,-2.9653,-2.9651,-2.9651,-2.9687,-2.9674,-2.9689,-2.9713,-2.9723,-2.9728,-2.9732,-2.9745,-2.975,-2.9691,-2.9691,-2.9691,0,-2.9689,-2.9698,-2.9682,-2.9691,-2.9692,-2.967,-2.9683,-2.9681,-2.9678,-2.9679,-2.9667,-2.9676,-2.9672,-2.9688,-2.9696,-2.9697,-2.97,-2.969,-2.9728,-2.9732,-2.9736,-2.9748,-2.9753,-2.9693,-2.9693,-2.9693,-2.9693,0,-2.9728,-2.9735,-2.9746,-2.9743,-2.9745,-2.9756,-2.9742,-2.9746,-2.9735,-2.9727,-2.9739,-2.9732,-2.9734,-2.9737,-2.9726,-2.9751,-2.9745,-2.9731,-2.9712,-2.9743,-2.9755,-2.9759,-2.9696,-2.9695,-2.9695,-2.9694,0,0,-2.9787,-2.9774,-2.9779,-2.9777,-2.9769,-2.9774,-2.9785,-2.9785,-2.9789,-2.9787,-2.9795,-2.9801,-2.9788,-2.9788,-2.9777,-2.9786,-2.9816,-2.9771,-2.9771,-2.978,-2.9843,-2.9853,-2.9859,-2.9806,-2.9807,-2.9808,-2.9843,0,-2.9824,-2.984,-2.9826,-2.9845,-2.9851,-2.983,-2.9839,-2.9835,-2.9828,-2.9832,-2.9824,-2.9828,-2.9811,-2.9811,-2.9818,-2.981,-2.9828,-2.9808,-2.9814,-2.9815,-2.9816,-2.9865,-2.9877,-2.991,-2.9847,-2.9848,-2.9849,0,-2.9869,-2.9869,-2.9888,-2.9879,-2.9881,-2.9889,-2.9889,-2.9893,-2.9888,-2.9882,-2.9881,-2.9868,-2.9877,-2.9857,-2.987,-2.9856,-2.9858,-2.9854,-2.9855,-2.9856,-2.9834,-2.9868,-2.9921,-2.9926,-2.9855,-2.9855,-2.9854,0,-2.991,-2.9915,-2.9927,-2.9926,-2.9915,-2.9922,-2.9918,-2.9912,-2.9913,-2.9912,-2.9913,-2.9914,-2.9914,-2.9915,-2.9902,-2.9889,-2.9916,-2.9895,-2.9912,-2.9912,-2.9919,-2.9919,-2.9974,-2.992,-2.9919,-2.9919,-2.9919,0,-2.9953,-2.9966,-2.9946,-2.9953,-2.9967,-2.995,-2.9965,-2.9958,-2.9953,-2.9959,-2.9941,-2.9947,-2.9929,-2.9933,-2.9923,-2.9935,-2.9935,-2.9931,-2.9928,-2.9933,-2.9933,-2.9934,-2.9932,-2.9921,-2.992,-2.992,-2.992,0,-3.0002,-2.9989,-3.0001,-2.999,-2.9987,-2.9998,-2.9988,-2.9995,-2.9985,-2.9994,-2.9994,-2.998,-2.9984,-2.9971,-2.9973,-2.9966,-2.9984,-2.9977,-2.9986,-2.9984,-3.0001,-3.0,-3.0059,-3.0066,-3.0006,-3.0007,-3.0007,0,-3.0031,-3.004,-3.003,-3.0032,-3.0029,-3.0033,-3.0034,-3.0017,-3.0019,-3.0014,-3.0021,-3.0024,-3.0025,-3.0032,-3.0022,-3.0024,-3.0017,-3.0037,-3.0017,-3.0022,-3.0018,-3.0018,-3.0019,-3.0042,-3.0043,-3.0043,-3.0044,0,-3.0083,-3.0076,-3.0078,-3.0077,-3.0079,-3.0078,-3.0075,-3.0079,-3.006,-3.0063,-3.0067,-3.0068,-3.0069,-3.0072,-3.0071,-3.0067,-3.0053,-3.005,-3.0054,-3.006,-3.0064,-3.0062,-2.9998,-3.0049,-3.0049,-3.0048,-3.0048,-3.0048,-3.0123,-3.013,-3.0124,-3.0126,-3.0123,-3.0121,-3.0126,-3.0117,-3.012,-3.012,-3.011,-3.0115,-3.011,-3.0107,-3.0104,-3.0108,-3.0099,-3.0104,-3.0106,-3.0108,-3.0111,-3.0063,-3.0108,-3.0108,-3.0108,-3.0107,-3.0107,0,-3.0174,-3.0169,-3.0171,-3.0168,-3.017,-3.0156,-3.0152,-3.0155,-3.016,-3.0156,-3.0157,-3.0161,-3.0163,-3.0153,-3.0154,-3.0159,-3.0153,-3.016,-3.016,-3.0159,-3.0119,-3.0116,-3.0165,-3.0165,-3.0165,-3.0165,-3.0165,-3.0165,-3.0201,-3.0213,-3.0205,-3.0214,-3.0208,-3.0213,-3.0213,-3.0211,-3.0207,-3.0212,-3.0214,-3.0207,-3.02,-3.02,-3.0202,-3.0199,-3.02,-3.021,-3.0205,-3.0168,-3.0162,-3.0157,-3.0154,-3.021,-3.021,-3.0245,-3.0245,-3.0245]}]]